sat.trackr.live / text

‹ back to catalog

STARLINK-2273

NORAD 47993 · 2021-024S

PAYLOAD ACTIVE UNKNOWN

§ Identity

Operator
Country
US
Launch date
2021-03-24
Launch site
AFETR
Launch vehicle
Mass (kg)
RCS (m²)

Purposes: comms

External: N2YO · Heavens-Above · Gunter

§ Orbital elements

Epoch: 2026-05-25T02:44:37.948704Z

Period
93.13 min
Inclination
53.1525°
Eccentricity
0.0002322
Mean motion
15.46216566 rev/d
Perigee alt
426.2 km
Apogee alt
429.4 km
Semi-major
6,805.9 km
B*
1.3247e-3
RAAN
295.5948°
Arg perigee
255.9220°
Mean anomaly
104.1529°
Rev number
28,690

§ Raw data

STARLINK-22731 47993U 21024S   26145.11432811  .00066294  00000+0  13247-2 0  99952 47993  53.1525 295.5948 0002322 255.9220 104.1529 15.46216566286900

JSON: /api/v1/satellites/47993 · /tle

For live sub-satellite position, see the globe view (requires WebGL).

§ Visibility from observer

Set your observer location to see the next 7 days of passes ≥ 10°. The values pass through the URL so the page stays shareable.

No JS? Fill the form by hand. The geolocation button needs JavaScript.